• MPC Preparation (Info)

  • MPEC 2017-F216: 2017 FP127

    The following Minor Planet Electronic Circular may be linked-to from your own Web pages, but must not otherwise be redistributed electronically.

    A form allowing access to any MPEC is at the bottom of this page.


    Read MPEC 2017-F215 Read MPEC 2017-F217


    M.P.E.C. 2017-F216                               Issued 2017 Mar. 31, 16:36 UT
    
         The Minor Planet Electronic Circulars contain information on unusual
             minor planets and routine data on comets.  They are published
        on behalf of Division F of the International Astronomical Union by the
              Minor Planet Center, Smithsonian Astrophysical Observatory,
                              Cambridge, MA 02138, U.S.A.
    
                 Prepared using the Tamkin Foundation Computer Network
    
                                  MPC@CFA.HARVARD.EDU
                URL https://www.minorplanetcenter.net/    ISSN 1523-6714
    
                                      2017 FP127
    
    Observations:
         K17FC7P* C2017 03 29.31250 11 59 08.43 +13 46 45.7          21.5 VqEF216G96
         K17FC7P  C2017 03 29.31676 11 59 09.52 +13 45 44.1          20.9 VqEF216G96
         K17FC7P  C2017 03 29.32529 11 59 11.52 +13 43 41.1          20.8 VqEF216G96
         K17FC7P  C2017 03 29.37808 11 59 24.78 +13 30 58.2          21.6 VqEF216G96
         K17FC7P  C2017 03 29.37849 11 59 24.91 +13 30 51.7          21.9 VqEF216G96
         K17FC7P  C2017 03 29.37889 11 59 25.13 +13 30 45.8          20.9 VqEF216G96
         K17FC7P  C2017 03 29.37929 11 59 25.18 +13 30 42.2          21.0 VqEF216G96
         K17FC7P KC2017 03 29.90312 12 02 44.87 +11 30 59.9          20.8  SEF216104
         K17FC7P KC2017 03 29.90831 12 02 46.08 +11 29 52.5          20.9  SEF216104
         K17FC7P KC2017 03 29.91337 12 02 47.22 +11 28 47.3          20.6  SEF216104
         K17FC7P KC2017 03 29.91844 12 02 48.38 +11 27 41.7          20.5  SEF216104
         K17FC7P  C2017 03 30.32793 12 04 50.94 +10 03 11.3          21.1 RoEF216926
         K17FC7P  C2017 03 30.33314 12 04 51.94 +10 02 08.1          20.9 RoEF216926
         K17FC7P  C2017 03 30.33707 12 04 52.70 +10 01 19.5          21.3 RoEF216926
         K17FC7P  C2017 03 31.30869 12 09 29.43 +07 00 10.5          21.9 RoEF216926
         K17FC7P  C2017 03 31.32081 12 09 31.25 +06 58 05.0          21.2 RoEF216926
    
    Observer details:
    104 San Marcello Pistoiese.  Observers P. Bacci, M. Maestripieri.  Measurers
        P. Bacci, L. Tesi, G. Fagioli.  0.60-m f/4 reflector + CCD.
    926 Tenagra II Observatory.  Observers M. Schwartz, P. R. Holvorcem.  Measurer
        M. Schwartz.  0.81-m f/7 Ritchey-Chretien + CCD.
    G96 Mt. Lemmon Survey.  Observer R. G. Matheny.  Measurers E. J. Christensen,
        D. C. Fuls, A. R. Gibbs, A. D. Grauer, J. A. Johnson, R. A. Kowalski,
        S. M. Larson, G. J. Leonard, R. G. Matheny, R. L. Seaman, F. C. Shelly.
        1.5-m reflector + 10K CCD.
    
    Orbital elements:
    2017 FP127                                               Earth MOID = 0.0123 AU
    Epoch 2017 Feb. 16.0 TT = JDT 2457800.5                 MPC
    M   8.48103              (2000.0)            P               Q
    n   0.77272195     Peri.  114.30358     -0.63845136     -0.76957478
    a   1.1761261      Node    15.39006     +0.68936149     -0.57847701
    e   0.2010980      Incl.    2.50481     +0.34228731     -0.27040526
    P   1.28           H   28.4           G   0.15           U   7
    Residuals in seconds of arc
    170329 G96  0.3-  0.0     170329 G96 (0.7+  1.9+)   170330 926  0.2-  0.4+
    170329 G96  0.5+  0.0     170329 104  0.0   0.1+    170330 926  0.1-  0.2-
    170329 G96  0.8-  0.2+    170329 104  0.2+  0.2-    170331 926  0.0   0.0
    170329 G96  0.6-  0.4+    170329 104  0.1-  0.1-    170331 926  0.2+  0.0
    170329 G96  0.2-  0.2-    170329 104  0.0   0.3-
    170329 G96  1.5+  0.3-    170330 926  0.3-  0.1+
    
    Ephemeris:
    2017 FP127               a,e,i = 1.18, 0.20, 3                   q = 0.9396
    Date    TT    R. A. (2000) Decl.     Delta      r     Elong.  Phase     V
    2017 03 01    01 19 27.9 +35 33 17   0.06041 0.9585    56.1   120.9    27.1
    ...
    2017 03 16    02 53 56.8 +59 18 39   0.02377 0.9874    71.6   107.1    24.3
    ...
    2017 03 24    10 48 28.9 +46 38 59   0.01618 1.0071   128.6    50.6    21.3
    ...
    2017 03 30    12 03 11.4 +11 13 27   0.02578 1.0234   163.3    16.3    21.4
    2017 03 31    12 08 09.4 +07 56 53   0.02806 1.0262   165.9    13.7    21.5
    2017 04 01    12 12 19.8 +05 09 44   0.03045 1.0290   168.0    11.7    21.6
    ...
    2017 04 07    12 28 02.9 -05 10 48   0.04623 1.0466   171.1     8.5    22.4
    ...
    2017 04 15    12 38 39.0 -11 13 52   0.06982 1.0713   166.7    12.5    23.5
    ...
    2017 04 30    12 51 25.3 -15 28 33   0.1213  1.1196   156.5    21.0    25.1
    
    A. U. Tomatic                (C) Copyright 2017 MPC           M.P.E.C. 2017-F216
    

    Read MPEC 2017-F215 Read MPEC 2017-F217


    MPEC number:

    Enter an MPEC number in one of the following forms:

    • 1997-B01 (the full form)
    • J97B01 (the packed version of the full form)
    • B01 (the abbreviated form)